User: anonymous   Login
Location: Unspecified
(0.0000°N, 0.0000°E)
Time: 20:55:34
(UTC+00:00)
Language:

FORTE - Orbit

View from above orbital plane
View from above orbital plane
View from above satellite
View from above satellite

Ground track
Ground track

The orbit data is extracted from the following two-line orbital elements,

1 24920U 97047A   21124.64884417  .00000014  00000-0  29658-4 0  9995
2 24920  69.9534 270.5641 0024888 299.9364  59.9286 14.26424303231961
Epoch (UTC): 04 May 2021 15:34:20
Eccentricity: 0.0024888
inclination: 69.9534°
perigee height: 786 km
apogee height: 821 km
right ascension of ascending node: 270.5641°
argument of perigee: 299.9364°
revolutions per day: 14.26424303
mean anomaly at epoch: 59.9286°
orbit number at epoch: 23196

The dashed part of the orbit path shows where the satellite is in the earth's shadow,  

DLR